Powrót do katalogu

DELTA 1 DEB

AktywnySSO
NORAD 7021·DEBRIS·🇺🇸 United States

Wystrzelony Nov 6, 1973 z Vandenberg Space Force Base

Loading…

Następne Przeloty (najbliższe 24 godziny)

TLE

ŚwieżeSource: Space-Track

Epoka: Sep 14, 2026, 14:20 UTC

1 07021U 73086M   26257.59733135  .00000340  00000-0  29414-2 0  9991
2 07021 101.6801 292.2298 0183547  58.5738  94.1022 12.33186549360309

Śledź DELTA 1 DEB w czasie rzeczywistym z AllMySat

Download on the App Store